Location: Moscow
(55.7500°N, 37.5830°E)
Time: 17:00:24
(UTC+03:00)

Tiros 1 despin weight - Pass Details

Date: 05 December 2021
Orbit: 592 x 641 km, 48.2° (Epoch: 23 January)

Event Time Altitude Azimuth Distance (km) Brightness Sun altitude
Rises 18:44:18 0° 267° (W) 2,826 ? -21.7°
Reaches altitude 10° 18:47:51 10° 238° (WSW) 1,923 ? -22.2°
Maximum altitude 18:49:38 12° 214° (SSW) 1,776 ? -22.4°
Drops below altitude 10° 18:51:25 10° 190° (S) 1,924 ? -22.7°
Enters shadow 18:53:52 - 167° (SSE) 2,493 ? -23.0°
